• In Latvia
  • List of Countries
  • For 7 days
  • Water Temperature
  • Satellite Maps
  • Weather Map
  • Weather Widgets
  • user-avatar
    Login

    Hourly Weather Djelfa

    Today, 24 January, Tuesday

    Time Temperature Precipitation Wind Pressure Humidity
    00:00 -1°C° 0 mm 8 mps 660 mmHg 90%
    01:00 -1°C° 0 mm 8 mps 660 mmHg 90%
    02:00 -1°C° 0 mm 8 mps 660 mmHg 89%
    03:00 -1°C° 0 mm 8 mps 660 mmHg 89%
    04:00 -1°C° 0.2 mm 8 mps 660 mmHg 89%
    05:00 -1°C° 0.2 mm 8 mps 660 mmHg 89%
    06:00 -1°C° 0.2 mm 8 mps 660 mmHg 89%
    07:00 0°C° 0.2 mm 9 mps 661 mmHg 87%
    08:00 0°C° 0.2 mm 10 mps 661 mmHg 84%
    09:00 +1°C° 0.2 mm 11 mps 661 mmHg 82%
    10:00 +1°C° 0.1 mm 11 mps 661 mmHg 79%
    11:00 +2°C° 0.1 mm 12 mps 662 mmHg 76%
    12:00 +1°C° 0.1 mm 13 mps 662 mmHg 73%
    13:00 +2°C° 0.3 mm 12 mps 662 mmHg 75%
    14:00 +2°C° 0.3 mm 12 mps 662 mmHg 76%
    15:00 +2°C° 0.3 mm 11 mps 662 mmHg 77%
    16:00 +1°C° 0.1 mm 10 mps 662 mmHg 79%
    17:00 0°C° 0.1 mm 9 mps 663 mmHg 81%
    18:00 0°C° 0.1 mm 8 mps 663 mmHg 83%
    19:00 -1°C° 0 mm 8 mps 663 mmHg 85%
    20:00 -1°C° 0 mm 8 mps 664 mmHg 87%
    21:00 -1°C° 0 mm 8 mps 664 mmHg 89%
    22:00 -1°C° 0 mm 8 mps 664 mmHg 89%
    23:00 -1°C° 0 mm 7 mps 664 mmHg 90%

    Tomorrow, 25 January, Wednesday

    Time Temperature Precipitation Wind Pressure Humidity
    00:00 -1°C° 0 mm 7 mps 664 mmHg 90%
    01:00 -1°C° 0 mm 7 mps 664 mmHg 91%
    02:00 -1°C° 0 mm 7 mps 664 mmHg 92%
    03:00 -1°C° 0 mm 6 mps 664 mmHg 93%
    04:00 -2°C° 0 mm 6 mps 664 mmHg 93%
    05:00 -2°C° 0 mm 6 mps 665 mmHg 93%
    06:00 -2°C° 0 mm 6 mps 665 mmHg 93%
    07:00 -1°C° 0 mm 6 mps 665 mmHg 90%
    08:00 +1°C° 0 mm 6 mps 666 mmHg 86%
    09:00 +1°C° 0 mm 6 mps 666 mmHg 83%
    10:00 +2°C° 0 mm 5 mps 666 mmHg 74%
    11:00 +5°C° 0 mm 5 mps 666 mmHg 65%
    12:00 +6°C° 0 mm 4 mps 666 mmHg 56%
    13:00 +6°C° 0 mm 4 mps 666 mmHg 53%
    14:00 +7°C° 0 mm 4 mps 665 mmHg 49%
    15:00 +8°C° 0 mm 3 mps 665 mmHg 46%
    16:00 +7°C° 0 mm 3 mps 665 mmHg 51%
    17:00 +6°C° 0 mm 2 mps 665 mmHg 56%
    18:00 +6°C° 0 mm 1 mps 665 mmHg 62%
    19:00 +4°C° 0 mm 2 mps 665 mmHg 64%
    20:00 +4°C° 0 mm 2 mps 665 mmHg 66%
    21:00 +4°C° 0 mm 2 mps 666 mmHg 68%
    22:00 +3°C° 0 mm 2 mps 665 mmHg 67%
    23:00 +3°C° 0 mm 2 mps 665 mmHg 67%

    Day after tomorrow, 26 January, Thursday

    Time Temperature Precipitation Wind Pressure Humidity
    00:00 +3°C° 0 mm 2 mps 665 mmHg 67%
    01:00 +3°C° 0 mm 2 mps 665 mmHg 65%
    02:00 +2°C° 0 mm 2 mps 665 mmHg 64%
    03:00 +2°C° 0 mm 2 mps 665 mmHg 63%
    04:00 +2°C° 0 mm 2 mps 665 mmHg 61%
    05:00 +2°C° 0 mm 2 mps 665 mmHg 60%
    06:00 +2°C° 0 mm 2 mps 665 mmHg 59%
    07:00 +3°C° 0 mm 2 mps 665 mmHg 55%
    08:00 +4°C° 0 mm 2 mps 666 mmHg 51%
    09:00 +5°C° 0 mm 2 mps 666 mmHg 46%
    10:00 +7°C° 0 mm 3 mps 666 mmHg 41%
    11:00 +7°C° 0 mm 4 mps 666 mmHg 36%
    12:00 +8°C° 0 mm 4 mps 666 mmHg 31%
    13:00 +8°C° 0 mm 4 mps 665 mmHg 30%
    14:00 +9°C° 0 mm 5 mps 665 mmHg 29%
    15:00 +9°C° 0 mm 5 mps 665 mmHg 29%
    16:00 +8°C° 0 mm 5 mps 665 mmHg 32%
    17:00 +6°C° 0 mm 4 mps 664 mmHg 35%
    18:00 +5°C° 0 mm 4 mps 664 mmHg 38%
    19:00 +4°C° 0 mm 4 mps 664 mmHg 39%
    20:00 +3°C° 0 mm 3 mps 664 mmHg 40%
    21:00 +3°C° 0 mm 3 mps 665 mmHg 41%
    22:00 +2°C° 0 mm 3 mps 664 mmHg 43%
    23:00 +2°C° 0 mm 3 mps 664 mmHg 44%

    27 January, Friday

    Time Temperature Precipitation Wind Pressure Humidity
    00:00 +2°C° 0 mm 3 mps 664 mmHg 45%
    01:00 +1°C° 0 mm 3 mps 664 mmHg 46%
    02:00 +1°C° 0 mm 3 mps 663 mmHg 47%
    03:00 +1°C° 0 mm 3 mps 663 mmHg 48%
    04:00 +1°C° 0 mm 3 mps 663 mmHg 50%
    05:00 0°C° 0 mm 3 mps 663 mmHg 51%
    06:00 0°C° 0 mm 3 mps 663 mmHg 53%
    07:00 +1°C° 0 mm 3 mps 663 mmHg 51%
    08:00 +1°C° 0 mm 4 mps 663 mmHg 49%
    09:00 +3°C° 0 mm 4 mps 664 mmHg 47%
    10:00 +4°C° 0.1 mm 4 mps 663 mmHg 45%
    11:00 +4°C° 0.1 mm 4 mps 663 mmHg 44%
    12:00 +5°C° 0.1 mm 4 mps 663 mmHg 43%
    13:00 +6°C° 0 mm 4 mps 662 mmHg 42%
    14:00 +7°C° 0 mm 5 mps 662 mmHg 41%
    15:00 +8°C° 0 mm 5 mps 662 mmHg 40%
    16:00 +7°C° 0 mm 4 mps 662 mmHg 44%
    17:00 +6°C° 0 mm 4 mps 661 mmHg 48%
    18:00 +4°C° 0 mm 3 mps 661 mmHg 52%
    19:00 +4°C° 0.5 mm 3 mps 661 mmHg 56%
    20:00 +4°C° 0.5 mm 3 mps 662 mmHg 60%
    21:00 +3°C° 0.5 mm 3 mps 662 mmHg 64%
    22:00 +3°C° 0.6 mm 4 mps 662 mmHg 70%
    23:00 +2°C° 0.6 mm 5 mps 662 mmHg 76%

    28 January, Saturday

    Time Temperature Precipitation Wind Pressure Humidity
    00:00 +2°C° 0.6 mm 6 mps 662 mmHg 83%
    01:00 +2°C° 0 mm 7 mps 662 mmHg 83%
    02:00 0°C° 0 mm 7 mps 661 mmHg 83%
    03:00 0°C° 0 mm 8 mps 661 mmHg 84%
    04:00 0°C° 0.1 mm 8 mps 662 mmHg 84%
    05:00 0°C° 0.1 mm 8 mps 662 mmHg 85%
    06:00 -1°C° 0.1 mm 8 mps 662 mmHg 86%
    07:00 0°C° 0 mm 9 mps 662 mmHg 83%
    08:00 0°C° 0 mm 10 mps 663 mmHg 80%
    09:00 +1°C° 0 mm 11 mps 663 mmHg 76%
    10:00 +1°C° 0.1 mm 11 mps 663 mmHg 74%
    11:00 +2°C° 0.1 mm 11 mps 664 mmHg 72%
    12:00 +3°C° 0.1 mm 11 mps 664 mmHg 70%
    13:00 +3°C° 0 mm 11 mps 664 mmHg 71%
    14:00 +3°C° 0 mm 11 mps 664 mmHg 72%
    15:00 +3°C° 0 mm 11 mps 664 mmHg 73%
    16:00 +2°C° 0 mm 10 mps 664 mmHg 76%
    17:00 +2°C° 0 mm 9 mps 665 mmHg 78%
    18:00 +1°C° 0 mm 8 mps 665 mmHg 81%
    19:00 +2°C° 0 mm 7 mps 666 mmHg 84%
    20:00 0°C° 0 mm 7 mps 666 mmHg 87%
    21:00 0°C° 0 mm 7 mps 666 mmHg 90%
    22:00 +1°C° 0 mm 6 mps 666 mmHg 91%
    23:00 -1°C° 0 mm 6 mps 666 mmHg 92%

    29 January, Sunday

    Time Temperature Precipitation Wind Pressure Humidity
    00:00 0°C° 0 mm 5 mps 666 mmHg 93%
    01:00 0°C° 0 mm 4 mps 666 mmHg 93%
    02:00 -1°C° 0 mm 4 mps 666 mmHg 93%
    03:00 0°C° 0 mm 3 mps 666 mmHg 94%
    04:00 0°C° 0 mm 3 mps 666 mmHg 94%
    05:00 0°C° 0 mm 3 mps 666 mmHg 94%
    06:00 +1°C° 0 mm 2 mps 666 mmHg 94%
    07:00 +2°C° 0 mm 2 mps 667 mmHg 90%
    08:00 +3°C° 0 mm 2 mps 667 mmHg 85%
    09:00 +4°C° 0 mm 2 mps 668 mmHg 81%
    10:00 +5°C° 0 mm 2 mps 668 mmHg 75%
    11:00 +7°C° 0 mm 2 mps 668 mmHg 68%
    12:00 +9°C° 0 mm 1 mps 668 mmHg 62%
    13:00 +9°C° 0 mm 1 mps 668 mmHg 60%
    14:00 +10°C° 0 mm 1 mps 667 mmHg 57%
    15:00 +10°C° 0 mm 1 mps 667 mmHg 55%
    16:00 +9°C° 0 mm 1 mps 667 mmHg 60%
    17:00 +8°C° 0 mm 1 mps 667 mmHg 65%
    18:00 +7°C° 0 mm 1 mps 667 mmHg 70%
    19:00 +7°C° 0 mm 1 mps 667 mmHg 72%
    20:00 +6°C° 0 mm 1 mps 668 mmHg 75%
    21:00 +6°C° 0 mm 1 mps 668 mmHg 77%
    22:00 +5°C° 0 mm 1 mps 668 mmHg 79%
    23:00 +5°C° 0 mm 1 mps 668 mmHg 81%
    Show more